Вернуться в каталог

SDA_1681

АктивенНаукаPO
NORAD 65991·PAYLOAD·🇺🇸 United States

Запущен Oct 15, 2025 с Vandenberg Space Force Base

Loading…

Ближайшие Пролёты (ближайшие 24 часа)

TLE

СвежийSource: Space-Track

Эпоха: Sep 14, 2026, 01:00 UTC

1 65991U 25230T   26257.04180648  .00000151  00000-0  12238-3 0  9991
2 65991  81.2999 129.1068 0003988 334.8048  25.2914 13.85313054 46124

Отслеживайте SDA_1681 в реальном времени с AllMySat

Download on the App Store